Date,TemperatureHighF,TemperatureAvgF,TemperatureLowF,DewpointHighF,DewpointAvgF,DewpointLowF,HumidityHigh,HumidityAvg,HumidityLow,PressureMaxIn,PressureMinIn,WindSpeedMaxMPH,WindSpeedAvgMPH,GustSpeedMaxMPH,PrecipitationSumIn
2013-1-1,35.0,22.7,9.7,27.9,4.6,-25.2,100,50,2,30.47,30.08,10,2,0,0.04
2013-1-2,33.4,13.0,-4.6,21.1,-4.1,-34.9,100,52,2,30.66,30.34,14,2,0,0.00
2013-1-3,29.0,10.8,-6.5,16.1,-0.4,-36.4,100,69,1,30.86,30.53,11,2,0,0.00
2013-1-4,37.9,10.6,-10.5,26.4,-4.8,-31.3,100,57,2,30.90,30.35,18,2,0,0.00
2013-1-5,34.7,15.0,-4.1,16.1,-1.8,-34.2,100,53,1,30.82,30.47,17,4,0,0.00
2013-1-6,47.1,18.7,-3.3,31.8,2.7,-34.2,100,55,3,30.83,30.32,8,0,0,0.01
2013-1-7,40.5,24.4,12.9,35.9,6.0,-17.5,100,49,5,30.42,30.06,20,4,0,0.00
2013-1-8,43.2,22.4,2.8,25.4,-1.9,-31.5,100,33,1,30.50,30.14,13,2,0,0.00
2013-1-9,48.8,25.1,8.3,28.7,8.3,-24.8,100,53,4,30.78,30.31,14,2,0,0.00
2013-1-10,45.5,26.4,8.1,40.2,6.1,-27.9,100,44,4,30.36,29.66,15,1,0,0.00
2013-1-11,42.9,27.6,4.8,41.2,8.9,-26.5,100,48,3,30.18,29.49,33,7,0,0.00
2013-1-12,28.7,12.4,-3.5,14.1,-9.0,-36.0,100,41,1,30.39,30.03,11,1,0,0.00
2013-1-13,27.8,13.1,1.8,22.2,0.1,-31.9,100,64,1,30.54,29.62,9,2,0,0.00
2013-1-14,27.6,17.4,6.9,15.7,4.3,-19.7,100,64,9,30.35,29.62,20,2,0,0.00
2013-1-15,31.2,18.5,3.7,18.7,5.5,-10.5,100,64,3,30.76,29.78,16,2,0,0.00
2013-1-16,40.3,19.3,-1.8,20.4,7.0,-16.4,100,66,16,30.91,30.42,13,1,0,0.00
2013-1-17,50.1,25.8,11.7,31.2,10.6,-15.3,100,58,8,30.85,30.17,17,1,0,0.00
2013-1-18,46.0,25.8,9.9,28.2,2.3,-21.2,98,35,1,30.69,30.29,17,2,0,0.00
2013-1-19,50.5,26.3,8.1,24.2,0.7,-27.9,100,29,1,30.66,30.36,18,2,0,0.00
2013-1-20,42.8,23.9,7.0,25.1,5.6,-29.0,100,49,1,30.67,30.28,17,3,0,0.00
2013-1-21,47.4,26.0,7.6,34.3,6.9,-28.4,100,47,1,30.64,30.28,15,2,0,0.00
2013-1-22,52.9,29.3,8.8,28.8,4.6,-26.1,100,31,1,30.66,30.29,13,2,0,0.00
2013-1-23,62.0,30.8,10.5,34.3,14.7,-19.5,100,55,1,30.68,30.29,14,1,0,0.00
2013-1-24,60.7,36.2,12.6,32.1,12.2,-17.4,100,33,3,30.59,30.14,10,1,0,0.00
2013-1-25,58.1,43.4,31.2,44.9,28.5,-4.4,100,59,1,30.34,30.03,10,0,0,0.00
2013-1-26,55.4,41.6,30.6,55.4,24.4,-2.9,100,52,1,30.17,29.74,20,1,0,0.31
2013-1-27,54.7,45.9,37.0,49.4,33.5,1.3,100,66,2,29.87,29.71,15,4,0,0.00
2013-1-28,49.2,41.7,33.5,45.7,26.0,1.9,100,56,2,29.82,29.54,29,7,0,0.16
2013-1-29,37.3,28.8,22.4,33.8,16.1,-12.9,100,65,1,30.01,29.64,18,6,0,0.00
2013-1-30,41.8,26.4,12.6,26.9,10.3,-19.5,100,55,1,30.33,29.98,14,3,0,0.00
2013-1-31,51.1,34.5,23.2,37.1,19.3,-12.8,100,58,1,30.35,30.15,14,2,0,0.00
2013-2-1,52.5,36.6,22.2,42.6,14.9,-13.5,100,40,2,30.42,30.10,11,2,0,0.00
2013-2-2,58.4,37.2,21.6,42.9,17.9,-12.4,100,46,1,30.54,30.18,10,1,0,0.00
2013-2-3,54.5,37.1,23.8,38.8,19.8,-12.2,100,52,1,30.36,29.91,9,0,0,0.00
2013-2-4,55.6,39.7,24.5,38.9,19.2,-9.9,100,43,1,30.16,29.87,15,2,0,0.00
2013-2-5,62.3,39.8,22.2,42.5,19.6,-13.8,100,44,1,30.17,29.86,15,2,0,0.00
2013-2-6,57.6,40.2,21.4,35.9,19.5,-11.2,100,42,2,30.04,29.78,10,2,0,0.00
2013-2-7,55.3,40.5,27.5,45.8,17.4,-5.9,100,36,1,30.15,29.82,9,1,0,0.00
2013-2-8,49.8,38.4,27.5,39.8,20.9,-8.5,100,51,1,30.14,29.72,20,2,0,0.00
2013-2-9,46.0,31.7,21.8,36.3,15.5,-13.9,100,55,1,29.79,29.51,34,6,0,0.00
2013-2-10,44.1,32.4,22.9,34.7,15.4,1.0,100,53,4,30.00,29.74,15,4,0,0.00
2013-2-11,41.6,30.8,22.5,34.1,11.0,-7.6,100,45,2,30.09,29.93,26,4,0,0.00
2013-2-12,42.2,27.9,11.7,38.3,5.6,-24.3,100,38,2,30.31,29.92,13,2,0,0.03
2013-2-13,49.9,30.1,13.6,23.6,7.2,-22.4,100,36,1,30.36,29.86,11,2,0,0.00
2013-2-14,49.9,32.9,17.2,32.5,13.6,-12.1,100,46,4,30.30,29.90,17,1,0,0.00
2013-2-15,49.2,36.0,25.0,37.0,17.4,-8.8,100,49,1,30.41,30.15,10,2,0,0.00
2013-2-16,54.7,33.7,14.6,35.4,15.6,-21.2,100,50,1,30.59,30.12,15,2,0,0.00
2013-2-17,58.4,36.1,16.5,28.2,9.1,-16.1,100,25,2,30.24,29.62,15,3,0,0.00
2013-2-18,48.8,36.8,25.0,24.5,11.1,3.1,72,29,10,30.15,29.66,16,4,0,0.00
2013-2-19,56.0,36.1,12.4,41.8,13.2,-22.9,100,36,1,30.24,29.64,21,3,0,0.01
2013-2-20,48.3,37.9,26.3,48.3,18.0,-9.7,100,45,1,29.67,29.41,28,4,0,0.08
2013-2-21,43.2,32.2,21.8,41.5,16.4,-10.9,100,56,1,29.91,29.49,13,2,0,0.02
2013-2-22,41.3,31.9,24.1,34.5,16.7,-9.6,100,58,1,30.05,29.84,22,4,0,0.00
2013-2-23,46.8,31.4,17.7,29.2,8.9,-18.3,100,38,1,30.18,29.64,14,2,0,0.00
2013-2-24,43.1,33.6,28.7,24.4,12.4,-6.2,82,41,2,29.86,29.53,18,6,0,0.00
2013-2-25,47.0,33.2,19.7,20.5,10.2,3.6,68,36,12,30.16,29.85,13,4,0,0.01
2013-2-26,41.6,31.6,20.8,33.5,9.3,-15.2,100,38,2,30.07,29.72,30,6,0,0.00
2013-2-27,40.3,30.0,23.3,12.4,9.2,7.7,62,42,22,30.38,29.73,10,2,0,0.00
2013-3-9,40.2,36.2,32.1,38.8,21.6,-1.4,100,59,17,29.97,29.74,18,6,0,0.13
2013-3-10,47.4,36.4,28.1,37.6,16.6,-6.5,100,45,2,30.20,29.93,14,2,0,0.01
2013-3-11,58.3,40.6,24.2,36.6,17.4,-11.8,100,36,1,30.26,29.87,17,2,0,0.00
2013-3-12,61.6,46.4,28.7,44.8,23.4,-5.6,100,36,2,30.22,29.94,13,2,0,0.00
2013-3-13,67.9,48.5,28.2,44.2,27.7,-4.2,100,42,6,30.32,30.03,10,1,0,0.00
2013-3-14,74.0,50.7,29.4,41.7,29.0,-6.6,100,40,9,30.34,30.04,16,2,0,0.00
2013-3-15,76.7,53.2,30.6,44.1,29.0,-4.2,100,33,1,30.20,29.77,21,2,0,0.00
2013-3-16,66.9,51.1,34.0,37.7,30.1,0.3,100,42,16,29.84,29.59,21,3,0,0.00
2013-3-17,63.5,50.1,32.1,50.8,26.3,-1.1,100,34,1,29.78,29.45,32,5,0,0.00
2013-3-18,59.6,46.6,29.0,36.9,21.2,-4.7,100,29,8,29.89,29.67,21,5,0,0.00
2013-3-20,56.5,54.1,52.3,39.1,27.5,25.3,54,26,22,29.81,29.67,8,2,0,0.00
2013-3-21,64.8,52.4,36.3,41.9,28.8,15.0,100,35,9,29.67,29.40,26,6,0,0.00
2013-3-22,59.5,45.6,27.0,36.5,21.3,-0.2,100,32,3,29.75,29.50,22,4,0,0.00
2013-3-24,44.3,37.4,29.5,12.6,9.7,7.4,49,23,11,30.11,30.00,20,7,0,0.00
2013-3-25,52.3,34.6,17.3,27.7,11.4,-13.5,100,36,8,30.30,30.01,13,2,0,0.00
2013-3-26,62.0,46.0,25.6,38.2,20.1,3.6,90,28,11,30.24,29.79,24,5,0,0.00
2013-3-27,70.1,53.9,30.1,37.9,25.5,9.5,74,21,6,30.00,29.76,20,4,0,0.00
2013-3-28,71.8,53.3,31.0,45.9,25.4,4.1,97,23,7,30.04,29.79,16,3,0,0.00
2013-3-29,69.8,50.6,29.8,38.6,26.5,0.8,100,33,4,30.15,29.88,22,2,0,0.00
2013-3-30,72.7,52.8,29.1,43.8,30.2,-5.3,100,37,4,30.12,29.79,20,3,0,0.00
2013-3-31,70.8,54.8,35.2,46.4,31.5,11.6,100,35,11,29.98,29.75,20,4,0,0.00
2013-4-1,71.6,55.4,34.4,46.5,29.9,13.9,100,29,6,29.91,29.63,16,4,0,0.00
2013-4-2,63.7,50.4,36.5,39.0,25.7,15.0,86,31,11,29.82,29.58,22,5,0,0.00
2013-4-3,61.2,47.0,31.9,39.1,29.0,-1.3,100,50,13,30.06,29.79,15,2,0,0.00
2013-4-4,72.0,51.0,29.0,39.2,28.9,-6.9,100,38,8,30.23,29.90,14,2,0,0.00
2013-4-5,74.0,54.7,30.9,41.6,27.3,12.9,72,24,9,30.02,29.59,22,4,0,0.00
2013-4-6,72.3,56.4,36.8,41.3,29.7,17.9,67,26,13,29.82,29.57,20,4,0,0.00
2013-4-7,70.9,57.2,40.5,38.9,29.8,19.2,57,24,10,29.69,29.50,23,4,0,0.00
2013-4-8,72.8,54.1,31.5,40.8,27.7,12.8,81,26,10,29.61,29.07,44,7,0,0.00
2013-4-9,53.3,43.5,35.9,46.0,27.9,2.0,100,57,5,29.83,29.13,35,8,0,0.09
2013-4-10,48.5,38.8,33.4,38.8,22.8,2.1,100,56,8,29.94,29.75,17,7,0,0.00
2013-4-11,62.3,43.9,24.7,37.9,23.7,-10.0,100,44,1,29.98,29.68,17,3,0,0.00
2013-4-12,66.9,50.3,35.2,44.6,27.9,-0.8,100,38,2,29.85,29.64,16,3,0,0.00
2013-4-13,72.0,55.0,31.9,40.0,29.0,17.8,84,28,9,29.83,29.35,21,5,0,0.00
2013-4-14,70.1,60.4,49.9,40.6,32.3,25.1,38,22,14,29.42,29.26,25,9,0,0.00
2013-4-15,74.2,61.4,49.8,41.4,32.4,24.6,31,19,8,29.51,29.25,30,10,0,0.00
2013-4-16,76.5,64.8,55.6,43.0,33.6,26.0,31,14,5,29.52,29.23,37,12,0,0.00
2013-4-17,61.5,45.9,36.0,40.9,23.4,0.0,100,38,1,29.83,29.38,22,5,0,0.00
2013-4-18,43.2,33.8,25.7,23.4,13.9,8.4,74,44,20,30.25,29.83,23,4,0,0.00
2013-4-19,60.5,41.1,17.5,27.4,15.0,2.5,81,28,8,30.41,29.90,17,4,0,0.00
2013-4-20,65.6,50.3,37.8,33.2,22.4,9.7,57,22,7,29.91,29.67,20,4,0,0.00
2013-4-21,70.1,51.2,27.5,36.6,25.9,2.2,82,30,6,30.09,29.81,20,4,0,0.00
2013-4-22,76.8,57.5,30.9,43.6,28.4,8.9,60,19,7,29.90,29.42,28,5,0,0.00
2013-4-23,66.6,51.6,39.5,35.3,25.7,10.0,57,28,5,30.01,29.40,26,11,0,0.00
2013-4-24,68.3,47.7,24.5,34.8,22.2,7.7,80,29,5,30.18,29.89,20,4,0,0.00
2013-4-25,70.4,54.2,44.1,40.9,30.0,18.6,71,33,14,29.98,29.66,21,4,0,0.00
2013-4-26,69.6,54.4,39.9,49.4,34.7,7.5,100,45,1,30.07,29.78,22,3,0,0.00
2013-4-27,75.4,54.6,30.6,42.5,31.7,19.0,100,36,7,30.22,29.85,17,2,0,0.00
2013-4-28,81.4,58.5,31.3,47.2,29.5,11.3,58,19,4,30.03,29.62,16,2,0,0.00
2013-4-29,83.6,61.3,33.2,50.1,31.2,10.0,66,16,6,29.78,29.43,20,4,0,0.00
2013-4-30,84.3,64.0,36.6,50.5,33.7,13.3,50,16,5,29.64,29.35,23,5,0,0.00
2013-5-1,76.8,64.7,42.9,45.1,33.8,16.6,28,14,6,30.02,29.37,22,7,0,0.00
2013-5-2,62.6,45.9,31.6,29.1,17.6,8.8,39,21,7,30.39,30.02,21,6,0,0.00
2013-5-3,72.1,49.2,26.6,38.6,21.3,6.1,67,23,6,30.35,29.81,13,3,0,0.00
2013-5-4,73.5,57.0,33.8,39.8,26.4,8.8,50,15,5,29.90,29.66,24,4,0,0.00
2013-5-5,69.9,55.0,38.6,39.5,27.3,13.8,46,23,12,29.96,29.78,24,5,0,0.00
2013-5-6,64.8,53.6,41.1,40.0,34.0,24.2,79,45,21,29.87,29.70,24,3,0,0.00
2013-5-7,74.0,56.2,36.3,49.5,36.7,1.8,100,46,13,29.95,29.65,20,3,0,0.00
2013-5-8,68.3,55.8,40.3,43.1,35.0,23.9,100,42,11,29.83,29.71,20,4,0,0.00
2013-5-9,66.9,52.4,38.0,40.8,30.2,19.3,75,38,17,29.94,29.80,22,3,0,0.01
2013-5-10,70.8,55.0,43.9,55.6,36.2,28.1,100,48,14,30.08,29.87,22,4,0,0.00
2013-5-11,74.0,55.8,36.9,52.0,32.4,4.6,100,35,4,30.30,30.04,17,4,0,0.00
2013-5-12,80.3,60.6,37.0,49.0,37.8,28.6,94,36,12,30.22,29.86,14,2,0,0.00
2013-5-13,85.9,64.4,39.6,53.9,39.3,25.0,80,30,11,30.10,29.81,18,2,0,0.00
2013-5-14,84.3,64.0,42.6,52.6,40.2,28.2,84,34,11,29.94,29.64,18,4,0,0.00
2013-5-15,80.5,65.1,53.2,58.4,44.6,38.6,100,43,17,29.76,29.55,21,3,0,0.00
2013-5-16,85.9,65.9,41.2,53.1,43.3,22.1,100,37,7,29.83,29.49,17,3,0,0.00
2013-5-17,85.9,67.3,39.9,52.1,37.4,17.2,72,17,5,29.80,29.46,24,4,0,0.00
2013-5-18,76.0,64.1,46.4,44.8,35.1,20.5,67,19,8,29.73,29.51,22,4,0,0.00
2013-5-19,73.5,60.8,50.4,42.4,35.1,30.9,71,29,8,29.69,29.51,24,5,0,0.00
2013-5-20,73.5,54.6,42.9,56.2,35.7,11.3,100,48,3,29.86,29.61,16,2,0,0.08
2013-5-21,78.5,58.9,35.3,47.3,31.4,1.0,100,24,1,30.02,29.61,20,3,0,0.00
2013-5-22,85.7,67.5,41.6,52.9,38.7,20.3,74,20,6,29.73,29.46,20,2,0,0.00
2013-5-23,88.6,70.9,45.1,54.5,41.2,19.9,70,18,5,29.73,29.47,29,5,0,0.00
2013-5-24,86.1,71.1,56.0,53.3,45.6,35.8,67,29,5,29.73,29.53,23,5,0,0.00
2013-5-25,86.3,71.0,51.4,55.4,44.4,29.9,100,26,6,29.78,29.46,30,4,0,0.00
2013-5-26,87.0,68.5,44.6,53.2,38.6,20.7,67,17,6,29.78,29.49,24,3,0,0.00
2013-5-27,81.1,65.0,41.8,48.0,34.2,14.4,50,14,5,29.76,29.47,16,3,0,0.00
2013-5-28,81.4,65.0,41.5,47.9,34.6,15.3,70,16,4,29.67,29.25,26,4,0,0.00
2013-5-29,77.2,65.7,51.4,45.1,36.5,26.9,46,19,8,29.44,29.29,24,6,0,0.00
2013-5-30,80.7,64.5,42.8,47.7,35.6,19.8,68,20,7,29.65,29.44,26,5,0,0.00
2013-5-31,82.4,64.4,39.2,49.8,35.1,18.0,62,19,6,29.74,29.57,25,5,0,0.00
2013-6-1,86.3,63.9,34.9,52.1,33.6,12.5,66,16,4,29.94,29.66,15,3,0,0.00
2013-6-2,86.3,67.1,47.1,54.6,40.9,25.2,69,27,11,29.86,29.54,34,4,0,0.00
2013-6-3,90.3,71.5,52.8,56.9,45.8,32.9,72,29,6,29.70,29.44,22,5,0,0.00
2013-6-4,92.3,75.7,44.6,60.3,47.1,26.2,76,20,8,29.73,29.44,22,4,0,0.00
2013-6-5,85.1,68.9,51.7,54.5,41.8,27.3,59,25,13,29.72,29.48,33,5,0,0.02
2013-6-6,87.6,66.3,43.8,56.6,42.8,30.1,67,35,13,29.82,29.58,22,4,0,0.00
2013-6-7,88.8,66.2,51.6,57.8,44.8,30.3,62,41,12,29.79,29.31,22,3,0,0.02
2013-6-8,94.3,67.9,43.5,62.6,49.2,39.4,100,48,12,29.79,29.42,24,3,0,0.00
2013-6-9,97.1,74.4,54.8,65.4,50.2,38.6,62,33,7,29.71,29.47,14,2,0,0.00
2013-6-10,99.0,80.1,54.4,67.0,53.9,39.6,66,27,9,29.72,29.36,17,2,0,0.00
2013-6-11,98.7,81.9,60.7,65.6,50.9,31.6,25,14,2,29.84,29.26,20,3,0,0.00
2013-6-12,100.4,76.4,48.0,66.2,45.8,23.0,41,15,3,29.81,29.55,15,2,0,0.00
2013-6-13,94.5,74.4,53.5,63.4,48.0,31.8,50,27,9,29.76,29.55,21,4,0,0.01
2013-6-14,86.5,72.4,59.2,59.4,49.1,42.1,67,35,18,29.76,29.54,16,3,0,0.00
2013-6-15,94.3,73.4,47.9,62.3,50.8,40.9,100,37,7,29.81,29.53,24,3,0,0.00
2013-6-16,92.3,76.0,55.3,61.0,48.6,34.9,46,24,10,29.77,29.56,28,3,0,0.00
2013-6-17,91.4,72.3,49.8,60.4,46.7,33.9,61,29,13,29.82,29.54,17,3,0,0.00
2013-6-18,87.2,74.1,59.3,57.8,50.5,39.4,62,35,11,29.79,29.47,21,6,0,0.00
2013-6-19,92.7,75.5,53.3,58.1,47.2,35.1,60,21,3,29.64,29.32,29,6,0,0.00
2013-6-20,89.5,68.1,49.4,56.4,40.5,27.9,50,23,7,29.65,29.45,15,2,0,0.00
2013-11-12,53.1,40.1,31.0,33.3,30.3,27.2,90,73,45,30.62,30.48,0,0,0,0.00
2013-11-13,59.1,36.2,25.7,37.1,28.6,23.2,95,79,39,30.61,30.23,0,0,0,0.00